Location: Newark
(20.1200°S, 168.9600°E)
Time: 00:22:31
(UTC+00:00)

ISS - Visible Passes

Search period start: 15 November 2019 00:00
Search period end: 25 November 2019 00:00
Orbit: 412 x 421 km, 51.6° (Epoch: 15 November)

Date Brightness Start Highest point End Pass type
(mag) Time Alt. Az. Time Alt. Az. Time Alt. Az.
21 Nov -2.3 17:19:02 10° NNW 17:22:06 33° NE 17:25:11 10° ESE visible
22 Nov -1.2 16:31:56 11° NNE 16:33:47 16° NE 16:35:54 10° E visible
23 Nov -3.3 17:18:51 12° WNW 17:21:52 46° SW 17:25:08 10° SSE visible
24 Nov -3.7 16:32:44 51° NNW 16:33:26 72° NE 16:36:48 10° SE visible
